This is the latest recevied weather packets stored in our database for station/object IR3AS. If no packets are shown the sender has not sent any weather packets the latest 10 day(s).
| Time | Temp. | Humidity | Pressure | Rain* | Wind** | Luminosity | Snow |
|---|---|---|---|---|---|---|---|
| 1777904753 | 10.56° C | 61% | 860.3 hPa | 0 mm | - | - | - |
| 1777904453 | 10.56° C | 60% | 860.3 hPa | 0 mm | - | - | - |
| 1777904153 | 10.56° C | 61% | 860.2 hPa | 0 mm | - | - | - |
| 1777903853 | 10.56° C | 60% | 860.4 hPa | 0 mm | - | - | - |
| 1777903553 | 10.56° C | 60% | 860.6 hPa | 0 mm | - | - | - |
| 1777903288 | 10.56° C | 59% | 860.7 hPa | 0 mm | - | - | - |
| 1777903253 | 10.56° C | 59% | 860.7 hPa | 0 mm | - | - | - |
| 1777902985 | 10.56° C | 58% | 860.8 hPa | 0 mm | - | - | - |
| 1777902953 | 10.56° C | 58% | 860.8 hPa | 0 mm | - | - | - |
| 1777902653 | 10.56° C | 58% | 860.9 hPa | 0 mm | - | - | - |
| 1777902353 | 11.11° C | 57% | 860.9 hPa | 0 mm | - | - | - |
| 1777902085 | 11.67° C | 58% | 860.9 hPa | 0 mm | - | - | - |
| 1777902053 | 11.67° C | 58% | 860.9 hPa | 0 mm | - | - | - |
| 1777901753 | 11.67° C | 57% | 860.9 hPa | 0 mm | - | - | - |
| 1777901453 | 12.22° C | 57% | 860.9 hPa | 0 mm | - | - | - |
| 1777901153 | 12.22° C | 57% | 860.9 hPa | 0 mm | - | - | - |
| 1777900853 | 12.22° C | 56% | 860.8 hPa | 0 mm | - | - | - |
| 1777900553 | 12.78° C | 56% | 860.9 hPa | 0 mm | - | - | - |
| 1777900253 | 12.78° C | 55% | 861 hPa | 0 mm | - | - | - |
| 1777899953 | 12.78° C | 57% | 861 hPa | 0 mm | - | - | - |
| 1777899653 | 12.22° C | 58% | 861.3 hPa | 0 mm | - | - | - |
| 1777899353 | 11.67° C | 57% | 861.3 hPa | 0 mm | - | - | - |
| 1777899093 | 11.67° C | 58% | 861.5 hPa | 0 mm | - | - | - |
| 1777899053 | 11.67° C | 58% | 861.5 hPa | 0 mm | - | - | - |
| 1777898753 | 11.67° C | 58% | 861.3 hPa | 0 mm | - | - | - |
* Rain latest hour (hover to see other rain measurements)
** Current wind speed in m/s (hover to see current wind gust speed)